^^
No Wait Weather (KNEBELLE1) Station Historical Data
Daily Summary for May 4, 2019 Units:  English    Metric   Both
Daily Weekly Monthly Yearly Custom
  High: Low: Average:
Temperature: 74.9 °F 48.8 °F 61 °F
Dew Point: 56.08 °F 44.65 °F 49.2 °F
Humidity: 91% 37% 68%
Wind Speed: 6mph 0mph 0.2mph
Wind Gust: 9mph - -
Wind- - SW
Pressure: 29.86 in 29.65 in -
Precipitation: 0.27 in    
Historical Graphs
 
 
Tabular Data for May 4, 2019
Time Temperature Dew Point Pressure Wind Wind Speed Wind Gust Humidity Rainfall Rate (Hourly) solar
00:04 54.1 °F 46 °F 29.85 in Calm     74% 0 in WeatherCatV3.04B91 W/m2
00:09 54.1 °F 45.64 °F 29.85 in Calm     73% 0 in WeatherCatV3.04B91 W/m2
00:14 54.1 °F 45.64 °F 29.84 in Calm     73% 0 in WeatherCatV3.04B91 W/m2
00:19 54.1 °F 45.27 °F 29.84 in Calm     72% 0 in WeatherCatV3.04B91 W/m2
00:24 54.1 °F 45.27 °F 29.84 in Calm     72% 0 in WeatherCatV3.04B91 W/m2
00:29 54.1 °F 45.27 °F 29.83 in Calm     72% 0 in WeatherCatV3.04B91 W/m2
00:34 53.9 °F 45.08 °F 29.83 in Calm     72% 0 in WeatherCatV3.04B91 W/m2
00:39 53.8 °F 45.35 °F 29.83 in Calm     73% 0 in WeatherCatV3.04B91 W/m2
00:44 53.6 °F 45.16 °F 29.85 in Calm     73% 0 in WeatherCatV3.04B91 W/m2
00:49 53.6 °F 45.52 °F 29.85 in Calm     74% 0 in WeatherCatV3.04B91 W/m2
00:54 53.5 °F 45.42 °F 29.85 in Calm   1 mph 74% 0 in WeatherCatV3.04B91 W/m2
00:59 53.5 °F 45.42 °F 29.85 in Calm   1 mph 74% 0 in WeatherCatV3.04B91 W/m2
01:04 53.3 °F 45.58 °F 29.85 in Calm   1 mph 75% 0 in WeatherCatV3.04B91 W/m2
01:09 53.2 °F 45.48 °F 29.85 in Calm     75% 0 in WeatherCatV3.04B91 W/m2
01:14 53.1 °F 45.74 °F 29.84 in Calm     76% 0 in WeatherCatV3.04B91 W/m2
01:19 52.9 °F 45.54 °F 29.84 in Calm     76% 0 in WeatherCatV3.04B91 W/m2
01:24 52.8 °F 45.79 °F 29.84 in Calm     77% 0 in WeatherCatV3.04B91 W/m2
01:29 52.6 °F 45.6 °F 29.84 in Calm     77% 0 in WeatherCatV3.04B91 W/m2
01:34 52.6 °F 45.94 °F 29.84 in Calm     78% 0 in WeatherCatV3.04B91 W/m2
01:39 52.5 °F 46.18 °F 29.84 in Calm     79% 0 in WeatherCatV3.04B91 W/m2
01:44 52.3 °F 45.98 °F 29.84 in Calm     79% 0 in WeatherCatV3.04B91 W/m2
01:49 52.2 °F 46.22 °F 29.84 in Calm     80% 0 in WeatherCatV3.04B91 W/m2
01:54 52 °F 46.02 °F 29.84 in Calm     80% 0 in WeatherCatV3.04B91 W/m2
01:59 51.9 °F 46.25 °F 29.84 in Calm     81% 0 in WeatherCatV3.04B91 W/m2
02:04 51.7 °F 46.06 °F 29.84 in Calm     81% 0 in WeatherCatV3.04B91 W/m2
02:09 51.6 °F 46.29 °F 29.84 in Calm     82% 0 in WeatherCatV3.04B91 W/m2
02:14 51.4 °F 46.09 °F 29.84 in Calm     82% 0 in WeatherCatV3.04B91 W/m2
02:19 51.3 °F 45.99 °F 29.84 in Calm   1 mph 82% 0 in WeatherCatV3.04B91 W/m2
02:24 51.3 °F 45.99 °F 29.84 in Calm     82% 0 in WeatherCatV3.04B91 W/m2
02:29 51.3 °F 45.99 °F 29.83 in Calm   1 mph 82% 0 in WeatherCatV3.04B91 W/m2
02:34 51.3 °F 45.99 °F 29.83 in Calm   1 mph 82% 0 in WeatherCatV3.04B91 W/m2
02:39 51.3 °F 45.99 °F 29.83 in Calm     82% 0 in WeatherCatV3.04B91 W/m2
02:44 51.1 °F 45.8 °F 29.83 in Calm     82% 0 in WeatherCatV3.04B91 W/m2
02:49 51 °F 45.7 °F 29.83 in Calm     82% 0 in WeatherCatV3.04B91 W/m2
02:54 50.8 °F 45.5 °F 29.83 in Calm     82% 0 in WeatherCatV3.04B91 W/m2
02:59 50.7 °F 45.41 °F 29.83 in Calm     82% 0 in WeatherCatV3.04B91 W/m2
03:04 50.5 °F 45.21 °F 29.83 in Calm     82% 0 in WeatherCatV3.04B91 W/m2
03:09 50.2 °F 44.92 °F 29.83 in Calm     82% 0 in WeatherCatV3.04B91 W/m2
03:14 50.1 °F 44.82 °F 29.82 in Calm     82% 0 in WeatherCatV3.04B91 W/m2
03:19 49.9 °F 44.94 °F 29.82 in Calm     83% 0 in WeatherCatV3.04B91 W/m2
03:24 49.8 °F 44.85 °F 29.82 in Calm     83% 0 in WeatherCatV3.04B91 W/m2
03:29 49.6 °F 44.65 °F 29.83 in Calm     83% 0 in WeatherCatV3.04B91 W/m2
03:34 49.5 °F 44.87 °F 29.83 in Calm     84% 0 in WeatherCatV3.04B91 W/m2
03:39 49.5 °F 44.87 °F 29.83 in Calm     84% 0 in WeatherCatV3.04B91 W/m2
03:44 49.5 °F 44.87 °F 29.83 in Calm     84% 0 in WeatherCatV3.04B91 W/m2
03:49 49.5 °F 44.87 °F 29.83 in Calm     84% 0 in WeatherCatV3.04B91 W/m2
03:54 49.5 °F 45.18 °F 29.83 in Calm     85% 0 in WeatherCatV3.04B91 W/m2
03:59 49.6 °F 45.28 °F 29.82 in Calm     85% 0 in WeatherCatV3.04B91 W/m2
04:04 49.6 °F 45.28 °F 29.82 in Calm   2 mph 85% 0 in WeatherCatV3.04B91 W/m2
04:09 49.8 °F 45.47 °F 29.82 in Calm     85% 0 in WeatherCatV3.04B91 W/m2
04:14 49.8 °F 45.47 °F 29.82 in Calm     85% 0 in WeatherCatV3.04B91 W/m2
04:19 49.8 °F 45.47 °F 29.82 in Calm     85% 0 in WeatherCatV3.04B91 W/m2
04:24 49.8 °F 45.47 °F 29.82 in Calm     85% 0 in WeatherCatV3.04B91 W/m2
04:29 49.6 °F 45.28 °F 29.83 in Calm     85% 0 in WeatherCatV3.04B91 W/m2
04:34 49.6 °F 45.28 °F 29.83 in Calm     85% 0 in WeatherCatV3.04B91 W/m2
04:39 49.6 °F 45.28 °F 29.83 in Calm     85% 0 in WeatherCatV3.04B91 W/m2
04:44 49.6 °F 45.59 °F 29.83 in Calm     86% 0 in WeatherCatV3.04B91 W/m2
04:49 49.6 °F 45.59 °F 29.83 in Calm     86% 0 in WeatherCatV3.04B91 W/m2
04:54 49.8 °F 45.78 °F 29.83 in Calm     86% 0 in WeatherCatV3.04B91 W/m2
04:59 49.8 °F 45.78 °F 29.83 in Calm     86% 0 in WeatherCatV3.04B91 W/m2
05:04 49.8 °F 45.78 °F 29.83 in Calm     86% 0 in WeatherCatV3.04B91 W/m2
05:09 49.9 °F 45.88 °F 29.83 in Calm     86% 0 in WeatherCatV3.04B91 W/m2
05:14 49.9 °F 45.88 °F 29.83 in Calm     86% 0 in WeatherCatV3.04B91 W/m2
05:19 49.9 °F 45.88 °F 29.83 in Calm     86% 0 in WeatherCatV3.04B91 W/m2
05:24 49.9 °F 45.88 °F 29.83 in Calm     86% 0 in WeatherCatV3.04B91 W/m2
05:29 49.9 °F 45.88 °F 29.83 in Calm     86% 0 in WeatherCatV3.04B91 W/m2
05:34 49.9 °F 45.88 °F 29.83 in Calm     86% 0 in WeatherCatV3.04B91 W/m2
05:39 49.9 °F 45.88 °F 29.83 in Calm     86% 0 in WeatherCatV3.04B91 W/m2
05:44 49.8 °F 45.78 °F 29.83 in Calm     86% 0 in WeatherCatV3.04B91 W/m2
05:49 49.6 °F 45.59 °F 29.83 in Calm     86% 0 in WeatherCatV3.04B91 W/m2
05:54 49.5 °F 45.49 °F 29.83 in Calm     86% 0 in WeatherCatV3.04B91 W/m2
05:59 49.2 °F 45.5 °F 29.84 in Calm     87% 0 in WeatherCatV3.04B91 W/m2
06:04 49.1 °F 45.4 °F 29.84 in Calm   2 mph 87% 0 in WeatherCatV3.04B91 W/m2
06:09 49.1 °F 45.4 °F 29.84 in Calm     87% 0 in WeatherCatV3.04B91 W/m2
06:14 49.1 °F 45.4 °F 29.84 in Calm     87% 0 in WeatherCatV3.04B91 W/m2
06:19 48.9 °F 45.2 °F 29.84 in Calm     87% 0 in WeatherCatV3.04B91 W/m2
06:24 48.9 °F 45.2 °F 29.84 in Calm     87% 0 in WeatherCatV3.04B91 W/m2
06:29 48.8 °F 45.1 °F 29.85 in Calm     87% 0 in WeatherCatV3.04B91 W/m2
06:34 48.8 °F 45.1 °F 29.85 in Calm     87% 0 in WeatherCatV3.04B91 W/m2
06:39 48.8 °F 45.1 °F 29.85 in Calm     87% 0 in WeatherCatV3.04B91 W/m2
06:44 48.8 °F 45.4 °F 29.85 in Calm     88% 0 in WeatherCatV3.04B91 W/m2
06:49 48.8 °F 45.4 °F 29.85 in Calm     88% 0 in WeatherCatV3.04B91 W/m2
06:54 48.8 °F 45.4 °F 29.85 in Calm     88% 0 in WeatherCatV3.04B91 W/m2
06:59 49.1 °F 45.7 °F 29.85 in Calm     88% 0 in WeatherCatV3.04B91 W/m2
07:04 49.4 °F 46.29 °F 29.85 in Calm   1 mph 89% 0 in WeatherCatV3.04B91 W/m2
07:09 49.9 °F 46.79 °F 29.85 in Calm     89% 0 in WeatherCatV3.04B91 W/m2
07:14 50.4 °F 47.28 °F 29.85 in Calm     89% 0 in WeatherCatV3.04B91 W/m2
07:19 50.7 °F 47.28 °F 29.85 in Calm     88% 0 in WeatherCatV3.04B91 W/m2
07:24 51 °F 47.57 °F 29.85 in Calm     88% 0 in WeatherCatV3.04B91 W/m2
07:29 51.3 °F 47.87 °F 29.86 in SW 2 mph 2 mph 88% 0 in WeatherCatV3.04B91 W/m2
07:34 51.6 °F 48.16 °F 29.86 in Calm     88% 0 in WeatherCatV3.04B91 W/m2
07:39 52 °F 48.56 °F 29.86 in Calm     88% 0 in WeatherCatV3.04B91 W/m2
07:44 52.3 °F 48.85 °F 29.86 in Calm     88% 0 in WeatherCatV3.04B91 W/m2
07:49 52.6 °F 48.84 °F 29.86 in Calm     87% 0 in WeatherCatV3.04B91 W/m2
07:54 53.1 °F 49.33 °F 29.86 in Calm     87% 0 in WeatherCatV3.04B91 W/m2
07:59 53.3 °F 49.22 °F 29.86 in Calm   2 mph 86% 0 in WeatherCatV3.04B91 W/m2
08:04 53.8 °F 49.71 °F 29.86 in Calm   1 mph 86% 0 in WeatherCatV3.04B91 W/m2
08:09 54.1 °F 49.69 °F 29.86 in Calm     85% 0 in WeatherCatV3.04B91 W/m2
08:14 54.4 °F 49.98 °F 29.86 in Calm   7 mph 85% 0 in WeatherCatV3.04B91 W/m2
08:19 54.7 °F 49.96 °F 29.86 in Calm   1 mph 84% 0 in WeatherCatV3.04B91 W/m2
08:24 55.1 °F 50.35 °F 29.86 in Calm     84% 0 in WeatherCatV3.04B91 W/m2
08:29 55.6 °F 50.52 °F 29.86 in SW 1 mph 5 mph 83% 0 in WeatherCatV3.04B91 W/m2
08:34 55.9 °F 50.48 °F 29.86 in Calm     82% 0 in WeatherCatV3.04B91 W/m2
08:39 56.2 °F 50.78 °F 29.86 in Calm   1 mph 82% 0 in WeatherCatV3.04B91 W/m2
08:44 56.5 °F 50.74 °F 29.85 in Calm   2 mph 81% 0 in WeatherCatV3.04B91 W/m2
08:49 56.7 °F 50.93 °F 29.85 in Calm     81% 0 in WeatherCatV3.04B91 W/m2
08:54 56.9 °F 51.13 °F 29.85 in Calm   1 mph 81% 0 in WeatherCatV3.04B91 W/m2
08:59 57 °F 51.23 °F 29.85 in Calm     81% 0 in WeatherCatV3.04B91 W/m2
09:04 57.2 °F 51.08 °F 29.85 in Calm     80% 0 in WeatherCatV3.04B91 W/m2
09:09 57.5 °F 51.38 °F 29.85 in Calm     80% 0 in WeatherCatV3.04B91 W/m2
09:14 57.6 °F 51.13 °F 29.85 in Calm     79% 0 in WeatherCatV3.04B91 W/m2
09:19 57.6 °F 50.79 °F 29.85 in Calm     78% 0 in WeatherCatV3.04B91 W/m2
09:24 57.8 °F 50.63 °F 29.85 in Calm     77% 0 in WeatherCatV3.04B91 W/m2
09:29 58.1 °F 50.92 °F 29.84 in Calm     77% 0 in WeatherCatV3.04B91 W/m2
09:34 58.4 °F 51.22 °F 29.84 in Calm     77% 0 in WeatherCatV3.04B91 W/m2
09:39 58.9 °F 50.99 °F 29.84 in Calm   1 mph 75% 0 in WeatherCatV3.04B91 W/m2
09:44 58.9 °F 50.62 °F 29.83 in Calm     74% 0 in WeatherCatV3.04B91 W/m2
09:49 59.2 °F 50.55 °F 29.83 in Calm     73% 0 in WeatherCatV3.04B91 W/m2
09:54 59.5 °F 50.84 °F 29.83 in Calm     73% 0 in WeatherCatV3.04B91 W/m2
09:59 59.8 °F 50.37 °F 29.83 in Calm     71% 0 in WeatherCatV3.04B91 W/m2
10:04 60.1 °F 50.66 °F 29.83 in Calm     71% 0 in WeatherCatV3.04B91 W/m2
10:09 60.4 °F 50.95 °F 29.83 in Calm     71% 0 in WeatherCatV3.04B91 W/m2
10:14 60.7 °F 50.85 °F 29.83 in Calm   1 mph 70% 0 in WeatherCatV3.04B91 W/m2
10:19 60.9 °F 51.05 °F 29.83 in Calm   2 mph 70% 0 in WeatherCatV3.04B91 W/m2
10:24 61 °F 50.75 °F 29.83 in SW 1 mph 1 mph 69% 0 in WeatherCatV3.04B91 W/m2
10:29 61.3 °F 50.64 °F 29.83 in Calm     68% 0 in WeatherCatV3.04B91 W/m2
10:34 61.8 °F 51.12 °F 29.83 in Calm     68% 0 in WeatherCatV3.04B91 W/m2
10:39 62.3 °F 51.6 °F 29.83 in Calm     68% 0 in WeatherCatV3.04B91 W/m2
10:44 62.7 °F 51.17 °F 29.83 in Calm   1 mph 66% 0 in WeatherCatV3.04B91 W/m2
10:49 63.1 °F 51.14 °F 29.83 in Calm     65% 0 in WeatherCatV3.04B91 W/m2
10:54 63.4 °F 50.58 °F 29.83 in Calm     63% 0 in WeatherCatV3.04B91 W/m2
10:59 63.7 °F 50.43 °F 29.82 in Calm     62% 0 in WeatherCatV3.04B91 W/m2
11:04 63.9 °F 50.18 °F 29.82 in Calm     61% 0 in WeatherCatV3.04B91 W/m2
11:09 64.2 °F 50.46 °F 29.82 in Calm     61% 0 in WeatherCatV3.04B91 W/m2
11:14 64.5 °F 50.3 °F 29.82 in Calm   1 mph 60% 0 in WeatherCatV3.04B91 W/m2
11:19 64.8 °F 49.67 °F 29.82 in Calm     58% 0 in WeatherCatV3.04B91 W/m2
11:24 65 °F 49.39 °F 29.82 in Calm   1 mph 57% 0 in WeatherCatV3.04B91 W/m2
11:29 65.2 °F 49.58 °F 29.81 in Calm   1 mph 57% 0 in WeatherCatV3.04B91 W/m2
11:34 65.3 °F 48.22 °F 29.81 in Calm     54% 0 in WeatherCatV3.04B91 W/m2
11:39 65.5 °F 47.91 °F 29.81 in Calm     53% 0 in WeatherCatV3.04B91 W/m2
11:44 65.8 °F 46.64 °F 29.81 in Calm     50% 0 in WeatherCatV3.04B91 W/m2
11:49 66.3 °F 46.56 °F 29.81 in Calm     49% 0 in WeatherCatV3.04B91 W/m2
11:54 66.4 °F 46.65 °F 29.81 in Calm     49% 0 in WeatherCatV3.04B91 W/m2
11:59 67.1 °F 48.88 °F 29.80 in Calm     52% 0 in WeatherCatV3.04B91 W/m2
12:04 67.3 °F 46.93 °F 29.80 in Calm   2 mph 48% 0 in WeatherCatV3.04B91 W/m2
12:09 67.6 °F 46.64 °F 29.80 in Calm   1 mph 47% 0 in WeatherCatV3.04B91 W/m2
12:14 67.6 °F 45.49 °F 29.80 in Calm     45% 0 in WeatherCatV3.04B91 W/m2
12:19 67.9 °F 47.48 °F 29.80 in Calm   1 mph 48% 0 in WeatherCatV3.04B91 W/m2
12:24 68.4 °F 49.55 °F 29.80 in Calm     51% 0 in WeatherCatV3.04B91 W/m2
12:29 68.6 °F 50.77 °F 29.79 in Calm     53% 0 in WeatherCatV3.04B91 W/m2
12:34 68.6 °F 49.74 °F 29.79 in Calm     51% 0 in WeatherCatV3.04B91 W/m2
12:39 68.9 °F 52.06 °F 29.79 in Calm     55% 0 in WeatherCatV3.04B91 W/m2
12:44 69.1 °F 50.2 °F 29.79 in Calm     51% 0 in WeatherCatV3.04B91 W/m2
12:49 69.4 °F 52.52 °F 29.79 in Calm     55% 0 in WeatherCatV3.04B91 W/m2
12:54 69.8 °F 51.37 °F 29.79 in Calm   1 mph 52% 0 in WeatherCatV3.04B91 W/m2
12:59 70.1 °F 51.12 °F 29.79 in Calm   1 mph 51% 0 in WeatherCatV3.04B91 W/m2
13:04 70.6 °F 50.5 °F 29.79 in Calm   1 mph 49% 0 in WeatherCatV3.04B91 W/m2
13:09 71.1 °F 50.4 °F 29.79 in Calm     48% 0 in WeatherCatV3.04B91 W/m2
13:14 71.1 °F 50.4 °F 29.78 in Calm     48% 0 in WeatherCatV3.04B91 W/m2
13:19 71.3 °F 52.22 °F 29.78 in Calm   3 mph 51% 0 in WeatherCatV3.04B91 W/m2
13:24 71.3 °F 52.22 °F 29.78 in Calm     51% 0 in WeatherCatV3.04B91 W/m2
13:29 71.5 °F 50.76 °F 29.77 in Calm     48% 0 in WeatherCatV3.04B91 W/m2
13:34 71.5 °F 51.87 °F 29.77 in Calm     50% 0 in WeatherCatV3.04B91 W/m2
13:39 70.9 °F 50.22 °F 29.77 in Calm     48% 0 in WeatherCatV3.04B91 W/m2
13:44 70.9 °F 51.32 °F 29.77 in Calm   1 mph 50% 0 in WeatherCatV3.04B91 W/m2
13:49 71.3 °F 51.69 °F 29.77 in Calm   1 mph 50% 0 in WeatherCatV3.04B91 W/m2
13:54 71.3 °F 50.58 °F 29.77 in Calm     48% 0 in WeatherCatV3.04B91 W/m2
13:59 71.1 °F 52.04 °F 29.77 in Calm     51% 0 in WeatherCatV3.04B91 W/m2
14:04 71.5 °F 52.94 °F 29.77 in Calm   2 mph 52% 0 in WeatherCatV3.04B91 W/m2
14:09 71.3 °F 52.22 °F 29.77 in Calm   1 mph 51% 0 in WeatherCatV3.04B91 W/m2
14:14 71.1 °F 52.04 °F 29.76 in Calm     51% 0 in WeatherCatV3.04B91 W/m2
14:19 71.1 °F 50.96 °F 29.76 in Calm     49% 0 in WeatherCatV3.04B91 W/m2
14:24 71.1 °F 50.96 °F 29.76 in Calm   1 mph 49% 0 in WeatherCatV3.04B91 W/m2
14:29 70.9 °F 50.22 °F 29.76 in Calm   2 mph 48% 0 in WeatherCatV3.04B91 W/m2
14:34 71.1 °F 50.96 °F 29.76 in Calm   4 mph 49% 0 in WeatherCatV3.04B91 W/m2
14:39 71.6 °F 53.55 °F 29.76 in Calm     53% 0 in WeatherCatV3.04B91 W/m2
14:44 72 °F 50.65 °F 29.74 in Calm     47% 0 in WeatherCatV3.04B91 W/m2
14:49 71.8 °F 50.47 °F 29.74 in Calm   1 mph 47% 0 in WeatherCatV3.04B91 W/m2
14:54 71.8 °F 50.47 °F 29.74 in Calm     47% 0 in WeatherCatV3.04B91 W/m2
14:59 71.8 °F 49.89 °F 29.74 in Calm     46% 0 in WeatherCatV3.04B91 W/m2
15:04 72.1 °F 50.16 °F 29.74 in Calm     46% 0 in WeatherCatV3.04B91 W/m2
15:09 72.1 °F 49.57 °F 29.74 in Calm   2 mph 45% 0 in WeatherCatV3.04B91 W/m2
15:14 72.3 °F 49.75 °F 29.73 in Calm     45% 0 in WeatherCatV3.04B91 W/m2
15:19 72.5 °F 48.72 °F 29.73 in Calm   1 mph 43% 0 in WeatherCatV3.04B91 W/m2
15:24 72.7 °F 48.9 °F 29.73 in Calm   2 mph 43% 0 in WeatherCatV3.04B91 W/m2
15:29 73.2 °F 48.72 °F 29.71 in Calm   2 mph 42% 0 in WeatherCatV3.04B91 W/m2
15:34 73.2 °F 48.07 °F 29.71 in Calm   2 mph 41% 0 in WeatherCatV3.04B91 W/m2
15:39 73.2 °F 48.72 °F 29.71 in Calm     42% 0 in WeatherCatV3.04B91 W/m2
15:44 73.3 °F 48.81 °F 29.71 in Calm   4 mph 42% 0 in WeatherCatV3.04B91 W/m2
15:49 74 °F 48.79 °F 29.71 in Calm   5 mph 41% 0 in WeatherCatV3.04B91 W/m2
15:54 74.4 °F 49.15 °F 29.71 in Calm   4 mph 41% 0 in WeatherCatV3.04B91 W/m2
15:59 74.9 °F 48.93 °F 29.69 in SW 1 mph 5 mph 40% 0 in WeatherCatV3.04B91 W/m2
16:04 74.9 °F 48.26 °F 29.69 in Calm     39% 0 in WeatherCatV3.04B91 W/m2
16:09 74.9 °F 48.93 °F 29.69 in SSW 2 mph 4 mph 40% 0 in WeatherCatV3.04B91 W/m2
16:14 74.4 °F 46.41 °F 29.69 in Calm   3 mph 37% 0 in WeatherCatV3.04B91 W/m2
16:19 74 °F 46.77 °F 29.69 in South 2 mph 2 mph 38% 0 in WeatherCatV3.04B91 W/m2
16:24 73.5 °F 48.34 °F 29.69 in Calm     41% 0 in WeatherCatV3.04B91 W/m2
16:29 73.3 °F 46.83 °F 29.68 in Calm   2 mph 39% 0 in WeatherCatV3.04B91 W/m2
16:34 73 °F 47.24 °F 29.68 in Calm   1 mph 40% 0 in WeatherCatV3.04B91 W/m2
16:39 73.3 °F 47.5 °F 29.68 in Calm   1 mph 40% 0 in WeatherCatV3.04B91 W/m2
16:44 73.5 °F 46.32 °F 29.68 in Calm   1 mph 38% 0 in WeatherCatV3.04B91 W/m2
16:49 73.5 °F 47.01 °F 29.68 in Calm     39% 0 in WeatherCatV3.04B91 W/m2
16:54 73.9 °F 49.98 °F 29.68 in Calm   1 mph 43% 0 in WeatherCatV3.04B91 W/m2
16:59 73.5 °F 46.32 °F 29.68 in Calm     38% 0 in WeatherCatV3.04B91 W/m2
17:04 73.3 °F 47.5 °F 29.68 in Calm     40% 0 in WeatherCatV3.04B91 W/m2
17:09 73 °F 47.89 °F 29.68 in Calm     41% 0 in WeatherCatV3.04B91 W/m2
17:14 73 °F 47.89 °F 29.68 in SSW 1 mph 1 mph 41% 0 in WeatherCatV3.04B91 W/m2
17:19 73 °F 46.56 °F 29.68 in Calm   6 mph 39% 0 in WeatherCatV3.04B91 W/m2
17:24 72.3 °F 48.54 °F 29.68 in SW 6 mph 9 mph 43% 0 in WeatherCatV3.04B91 W/m2
17:29 71.3 °F 48.85 °F 29.68 in SW 3 mph 4 mph 45% 0 in WeatherCatV3.04B91 W/m2
17:34 70.4 °F 49.76 °F 29.68 in SW 1 mph 5 mph 48% 0 in WeatherCatV3.04B91 W/m2
17:39 69.6 °F 50.13 °F 29.68 in Calm   5 mph 50% 0 in WeatherCatV3.04B91 W/m2
17:44 68.9 °F 49.48 °F 29.68 in Calm   6 mph 50% 0 in WeatherCatV3.04B91 W/m2
17:49 68.4 °F 49.55 °F 29.68 in Calm   5 mph 51% 0 in WeatherCatV3.04B91 W/m2
17:54 68.4 °F 50.08 °F 29.68 in Calm   2 mph 52% 0 in WeatherCatV3.04B91 W/m2
17:59 68.6 °F 49.74 °F 29.68 in Calm   3 mph 51% 0 in WeatherCatV3.04B91 W/m2
18:04 69.3 °F 50.91 °F 29.68 in Calm     52% 0 in WeatherCatV3.04B91 W/m2
18:09 69.8 °F 49.77 °F 29.68 in Calm   7 mph 49% 0 in WeatherCatV3.04B91 W/m2
18:14 70.1 °F 49.49 °F 29.66 in Calm   5 mph 48% 0 in WeatherCatV3.04B91 W/m2
18:19 70.1 °F 50.04 °F 29.66 in Calm   2 mph 49% 0 in WeatherCatV3.04B91 W/m2
18:24 70.1 °F 50.04 °F 29.66 in Calm   3 mph 49% 0 in WeatherCatV3.04B91 W/m2
18:29 69.9 °F 50.4 °F 29.67 in Calm   3 mph 50% 0 in WeatherCatV3.04B91 W/m2
18:34 69.6 °F 50.13 °F 29.67 in WSW 1 mph 2 mph 50% 0 in WeatherCatV3.04B91 W/m2
18:39 69.4 °F 49.94 °F 29.67 in SW 1 mph 4 mph 50% 0 in WeatherCatV3.04B91 W/m2
18:43 69.3 °F 50.91 °F 29.67 in Calm   2 mph 52% 0 in WeatherCatV3.04B91 W/m2
18:49 69.1 °F 51.24 °F 29.67 in SW 3 mph 3 mph 53% 0 in WeatherCatV3.04B91 W/m2
18:54 68.6 °F 49.74 °F 29.67 in Calm   5 mph 51% 0 in WeatherCatV3.04B91 W/m2
18:59 68.4 °F 50.59 °F 29.67 in Calm   2 mph 53% 0 in WeatherCatV3.04B91 W/m2
19:04 68.1 °F 50.31 °F 29.67 in Calm     53% 0 in WeatherCatV3.04B91 W/m2
19:09 67.9 °F 50.63 °F 29.67 in Calm   2 mph 54% 0 in WeatherCatV3.04B91 W/m2
19:14 67.8 °F 50.54 °F 29.66 in Calm     54% 0 in WeatherCatV3.04B91 W/m2
19:19 67.6 °F 50.35 °F 29.66 in WSW 4 mph 5 mph 54% 0 in WeatherCatV3.04B91 W/m2
19:24 67.4 °F 50.66 °F 29.66 in SSW 4 mph 4 mph 55% 0 in WeatherCatV3.04B91 W/m2
19:29 67.3 °F 51.06 °F 29.66 in Calm   2 mph 56% 0 in WeatherCatV3.04B91 W/m2
19:34 67.1 °F 51.35 °F 29.66 in Calm   5 mph 57% 0 in WeatherCatV3.04B91 W/m2
19:39 66.9 °F 51.16 °F 29.66 in SSW 1 mph 4 mph 57% 0 in WeatherCatV3.04B91 W/m2
19:44 66.8 °F 51.07 °F 29.65 in Calm     57% 0 in WeatherCatV3.04B91 W/m2
19:49 66.4 °F 51.16 °F 29.65 in Calm   4 mph 58% 0 in WeatherCatV3.04B91 W/m2
19:54 66.3 °F 51.53 °F 29.65 in Calm   4 mph 59% 0 in WeatherCatV3.04B91 W/m2
19:59 66 °F 51.71 °F 29.65 in SSW 2 mph 9 mph 60% 0 in WeatherCatV3.04B91 W/m2
20:04 65.6 °F 51.78 °F 29.65 in Calm   3 mph 61% 0 in WeatherCatV3.04B91 W/m2
20:09 65.5 °F 51.69 °F 29.65 in WSW 1 mph 3 mph 61% 0 in WeatherCatV3.04B91 W/m2
20:14 65.2 °F 51.84 °F 29.66 in SW 1 mph 2 mph 62% 0 in WeatherCatV3.04B91 W/m2
20:19 65 °F 51.66 °F 29.66 in Calm   5 mph 62% 0 in WeatherCatV3.04B91 W/m2
20:24 64.8 °F 51.9 °F 29.66 in Calm   2 mph 63% 0 in WeatherCatV3.04B91 W/m2
20:29 64.8 °F 52.33 °F 29.66 in WSW 1 mph 4 mph 64% 0 in WeatherCatV3.04B91 W/m2
20:34 64.7 °F 52.23 °F 29.66 in Calm   3 mph 64% 0 in WeatherCatV3.04B91 W/m2
20:39 64.7 °F 52.23 °F 29.66 in Calm   1 mph 64% 0 in WeatherCatV3.04B91 W/m2
20:43 64.7 °F 52.23 °F 29.66 in Calm   2 mph 64% 0 in WeatherCatV3.04B91 W/m2
20:49 64.5 °F 52.47 °F 29.66 in Calm   1 mph 65% 0 in WeatherCatV3.04B91 W/m2
20:54 64.3 °F 52.28 °F 29.66 in Calm   3 mph 65% 0 in WeatherCatV3.04B91 W/m2
20:59 64.3 °F 52.28 °F 29.66 in SW 1 mph 1 mph 65% 0 in WeatherCatV3.04B91 W/m2
21:04 64.3 °F 52.69 °F 29.66 in Calm     66% 0 in WeatherCatV3.04B91 W/m2
21:09 64.2 °F 52.6 °F 29.66 in Calm   4 mph 66% 0 in WeatherCatV3.04B91 W/m2
21:14 64.2 °F 53.01 °F 29.66 in Calm   1 mph 67% 0 in WeatherCatV3.04B91 W/m2
21:19 64 °F 52.82 °F 29.66 in Calm   2 mph 67% 0 in WeatherCatV3.04B91 W/m2
21:24 64 °F 52.82 °F 29.66 in Calm   2 mph 67% 0 in WeatherCatV3.04B91 W/m2
21:29 63.9 °F 53.12 °F 29.66 in Calm     68% 0 in WeatherCatV3.04B91 W/m2
21:34 63.7 °F 52.93 °F 29.66 in Calm   5 mph 68% 0 in WeatherCatV3.04B91 W/m2
21:39 63.5 °F 52.74 °F 29.66 in Calm     68% 0 in WeatherCatV3.04B91 W/m2
21:44 63.5 °F 53.14 °F 29.68 in SW 1 mph 3 mph 69% 0 in WeatherCatV3.04B91 W/m2
21:49 63.4 °F 53.05 °F 29.68 in SW 3 mph 3 mph 69% 0 in WeatherCatV3.04B91 W/m2
21:54 63.4 °F 53.05 °F 29.68 in WSW 3 mph 4 mph 69% 0 in WeatherCatV3.04B91 W/m2
21:59 63.5 °F 52.74 °F 29.68 in Calm   4 mph 68% 0 in WeatherCatV3.04B91 W/m2
22:04 63.5 °F 52.74 °F 29.68 in Calm   3 mph 68% 0 in WeatherCatV3.04B91 W/m2
22:09 63.5 °F 52.74 °F 29.68 in Calm   2 mph 68% 0 in WeatherCatV3.04B91 W/m2
22:14 63.5 °F 52.74 °F 29.67 in Calm   4 mph 68% 0 in WeatherCatV3.04B91 W/m2
22:19 63.5 °F 52.34 °F 29.67 in Calm   5 mph 67% 0 in WeatherCatV3.04B91 W/m2
22:24 63.5 °F 52.34 °F 29.67 in Calm   7 mph 67% 0 in WeatherCatV3.04B91 W/m2
22:29 63.5 °F 53.53 °F 29.70 in Calm     70% 0.15 in WeatherCatV3.04B91 W/m2
22:34 62.7 °F 54.66 °F 29.70 in Calm   4 mph 75% 2.58 in WeatherCatV3.04B91 W/m2
22:39 61.2 °F 55.32 °F 29.70 in Calm   8 mph 81% 0.85 in WeatherCatV3.04B91 W/m2
22:44 59.9 °F 55.38 °F 29.69 in SSW 2 mph 6 mph 85% 0.28 in WeatherCatV3.04B91 W/m2
22:49 59.3 °F 55.43 °F 29.69 in Calm   3 mph 87% 0.08 in WeatherCatV3.04B91 W/m2
22:54 59 °F 55.45 °F 29.69 in Calm   5 mph 88% 0.05 in WeatherCatV3.04B91 W/m2
22:59 58.9 °F 55.66 °F 29.68 in SSW 2 mph 2 mph 89% 0 in WeatherCatV3.04B91 W/m2
23:04 58.7 °F 55.77 °F 29.68 in Calm   5 mph 90% 0 in WeatherCatV3.04B91 W/m2
23:09 58.6 °F 55.67 °F 29.68 in Calm     90% 0 in WeatherCatV3.04B91 W/m2
23:14 58.6 °F 55.98 °F 29.69 in Calm     91% 0 in WeatherCatV3.04B91 W/m2
23:19 58.7 °F 56.08 °F 29.69 in SW 2 mph 3 mph 91% 0 in WeatherCatV3.04B91 W/m2
23:24 58.7 °F 55.77 °F 29.69 in Calm   4 mph 90% 0 in WeatherCatV3.04B91 W/m2
23:29 58.3 °F 55.38 °F 29.69 in Calm   2 mph 90% 0 in WeatherCatV3.04B91 W/m2
23:34 58.4 °F 55.48 °F 29.69 in Calm     90% 0 in WeatherCatV3.04B91 W/m2
23:39 58.7 °F 55.77 °F 29.69 in Calm   1 mph 90% 0 in WeatherCatV3.04B91 W/m2
23:44 58.6 °F 55.67 °F 29.69 in Calm     90% 0 in WeatherCatV3.04B91 W/m2
23:49 58.4 °F 55.78 °F 29.69 in Calm     91% 0 in WeatherCatV3.04B91 W/m2
23:54 58.3 °F 55.68 °F 29.69 in Calm     91% 0 in WeatherCatV3.04B91 W/m2
23:59 58.1 °F 55.48 °F 29.69 in Calm     91% 0 in WeatherCatV3.04B91 W/m2
Bellevue, Nebraska, USA
Compliments of Weather Underground - 3.25 mb